Wind_Speed
58 59 62 64 65 62 62 61 61 47 44 44 41 35 44 48 44 47 43 27 28 33 30 30 20 20 24 23 23 17 20 25 26 28 33 37 35 44 49 51 54 56 56 57 59 62 64 68 70 75 80 83 84 87
54 59 61 64 60 56 56 54 38 33 37 37 29 32 40 44 36 38 28 20 23 28 29 31 31 27 26 20 19 16 16 23 25 26 25 31 35 39 43 48 52 52 57 60 64 70 73 76 79 83 87 90 92 94
56 57 56 51 47 49 43 25 29 32 30 28 25 29 38 37 31 33 28 14 19 17 17 20 19 19 20 18 11 10 10 9 14 18 23 26 33 39 45 48 52 57 63 65 69 73 77 81 85 87 91 92 93 92
52 48 46 44 42 31 25 26 30 31 31 25 20 27 33 32 27 29 22 13 8 10 10 9 10 12 10 7 6 8 11 16 19 22 26 29 34 39 43 47 50 54 57 61 65 67 69 73 75 77 78 77 77 76
43 42 40 34 27 27 26 28 32 30 28 19 20 25 27 28 24 26 19 12 11 12 6 7 7 8 8 5 1 3 7 10 14 20 26 31 35 39 41 44 48 51 52 50 48 49 52 55 57 61 64 66 67 68
37 34 26 23 26 29 30 31 32 30 23 18 20 23 26 25 25 24 19 14 15 11 4 3 5 5 3 3 6 9 13 14 13 18 21 23 27 33 37 40 34 32 33 37 42 44 50 52 52 56 58 60 61 62
32 28 25 24 27 30 33 31 31 30 21 19 20 23 28 26 25 23 21 14 14 13 8 5 5 4 6 11 14 16 17 16 19 23 25 27 31 33 29 26 25 29 33 37 39 42 44 45 47 48 50 51 50 49
29 29 27 27 29 31 34 31 32 29 21 20 19 22 27 22 23 22 20 14 16 15 12 10 9 8 9 14 17 18 19 20 24 26 28 31 31 25 20 23 27 30 32 35 35 37 38 40 43 46 49 48 44 40
31 30 31 32 32 33 35 32 34 23 22 20 20 22 22 22 22 21 22 16 17 15 14 13 11 11 13 17 20 20 20 23 27 28 29 30 25 20 22 25 27 28 29 28 30 32 34 37 38 41 43 44 39 33
33 33 33 34 33 37 35 34 29 23 22 20 19 20 23 23 23 21 24 21 20 20 17 15 12 12 14 17 20 20 20 24 28 30 30 28 20 22 25 26 27 27 28 29 31 31 32 33 35 41 44 37 31 25
35 34 36 36 37 37 32 33 22 21 23 21 20 23 22 25 24 23 25 20 23 22 21 17 14 13 15 17 19 18 21 25 29 31 30 23 19 24 25 26 28 28 30 31 30 30 31 33 37 40 37 28 24 17
39 38 38 40 37 33 32 28 21 23 22 22 21 23 23 25 25 26 27 21 28 20 21 18 15 13 14 17 17 18 23 26 31 32 29 18 21 23 23 25 26 25 26 25 25 27 30 31 34 38 36 30 20 12
41 39 42 38 31 33 32 23 23 22 24 24 22 23 24 25 26 28 30 20 32 25 22 18 15 12 14 16 16 19 24 26 31 27 22 19 23 23 23 21 21 23 24 24 27 31 34 37 40 40 40 37 26 14
42 40 35 33 32 32 32 22 25 24 23 22 23 24 24 27 27 29 32 23 34 27 24 17 14 14 14 16 15 19 22 24 26 17 24 22 25 25 20 18 21 23 23 26 29 32 35 38 43 46 45 44 41 31
38 37 37 36 34 33 29 23 25 26 24 25 26 24 27 28 30 32 28 32 33 28 21 18 17 15 14 14 15 18 21 23 23 23 20 21 28 29 18 19 19 18 21 25 28 30 33 37 41 45 48 49 47 45
45 43 40 38 36 32 26 25 28 27 25 30 25 27 29 30 31 36 21 38 34 27 22 20 18 15 14 15 17 18 21 22 23 21 23 21 22 27 20 16 13 17 20 25 26 28 31 35 38 41 44 46 47 47
47 45 44 40 35 27 26 27 28 29 29 23 26 28 29 31 36 25 34 35 32 26 21 20 17 15 16 16 17 19 21 21 23 22 23 21 19 22 21 17 16 15 16 22 22 24 29 32 35 36 37 39 42 44
49 47 41 36 32 28 28 28 26 28 25 22 26 27 30 34 27 25 38 32 28 25 22 20 16 14 15 16 18 21 24 24 23 23 24 21 16 18 21 16 17 18 19 21 19 22 25 29 29 29 31 33 36 36
44 41 38 34 32 28 24 21 25 24 20 23 26 28 30 32 19 35 33 31 28 25 22 17 13 15 16 17 18 21 24 28 29 28 27 25 15 13 18 19 16 17 17 16 19 22 24 26 27 30 31 32 31 31
40 37 34 33 30 25 20 21 22 19 20 23 26 27 30 15 34 36 32 29 27 24 18 15 15 14 17 17 19 22 23 26 26 33 30 23 15 10 15 21 19 17 15 16 17 18 20 21 22 25 28 30 32 29
35 36 35 30 27 25 27 23 20 18 20 24 26 28 16 27 38 34 31 28 24 20 18 18 15 17 18 20 23 26 28 30 32 33 33 27 20 17 13 19 19 17 16 15 16 19 20 21 23 25 28 28 29 28
35 31 29 28 26 23 21 20 17 18 22 24 25 23 19 37 37 33 30 25 21 19 17 15 16 19 21 24 27 30 34 35 35 30 30 27 23 19 14 15 19 17 17 15 14 18 20 21 23 26 29 29 27 26
30 29 27 26 25 21 21 18 17 20 22 24 25 13 33 40 36 31 25 23 21 17 15 16 18 22 24 26 32 35 36 34 30 31 27 26 28 21 10 17 18 17 16 16 16 17 20 22 22 26 28 30 28 26
27 26 26 22 20 20 17 17 20 21 22 24 19 24 39 39 33 26 24 22 18 17 18 19 20 24 26 29 31 34 32 22 18 19 20 22 21 15 13 16 17 17 14 15 17 18 20 21 22 24 28 29 28 27
26 25 24 22 21 18 18 19 20 21 22 23 15 35 39 34 29 26 23 19 17 18 20 20 22 24 28 28 27 25 18 7 5 16 18 20 18 15 17 16 13 13 14 16 20 21 20 20 22 25 29 30 29 27
22 22 21 21 20 20 20 21 22 21 22 13 29 40 37 32 28 25 21 19 19 18 19 20 22 26 27 28 25 16 14 14 7 4 8 15 20 24 14 13 13 15 17 19 22 21 19 19 23 27 28 26 29 30
21 21 22 23 22 23 24 24 23 20 19 23 38 39 35 31 27 23 20 17 16 15 17 19 23 23 25 26 22 16 12 13 14 17 15 9 10 9 9 10 11 13 17 18 16 16 19 23 25 24 24 22 21 22
24 26 27 28 28 29 28 27 25 23 17 36 40 36 32 29 25 18 16 14 12 13 16 21 21 22 20 19 18 17 11 13 12 9 10 9 8 6 6 10 13 15 14 10 13 19 21 20 19 19 17 22 24 26
31 32 33 34 34 34 33 31 27 20 34 42 39 35 30 26 21 15 13 12 12 13 18 19 20 18 13 14 15 13 14 12 11 10 9 7 8 7 8 10 13 9 9 12 16 20 16 14 13 16 20 24 26 29
40 40 41 42 40 39 34 24 23 41 48 45 40 33 27 22 16 13 10 9 10 15 16 15 13 10 8 8 7 4 2 0 2 1 1 1 1 3 5 5 6 8 11 15 17 15 12 13 15 18 21 24 26 25
44 42 39 34 30 27 27 35 47 52 48 41 33 29 24 18 15 10 7 6 10 10 8 7 6 5 4 2 1 3 6 6 5 4 1 1 3 2 1 3 5 9 11 9 5 5 9 12 13 16 20 22 25 28
25 25 24 26 28 31 40 52 53 49 42 37 32 24 19 15 10 7 4 4 3 2 3 5 4 4 4 4 5 5 5 7 7 5 3 2 1 4 7 9 7 8 7 5 7 10 13 15 18 20 22 27 29 31
20 22 25 30 36 46 55 54 50 45 40 33 26 21 16 12 8 4 4 4 2 1 2 3 3 6 7 6 4 4 4 3 3 2 2 3 3 7 9 8 4 6 6 10 12 15 19 21 24 25 25 27 28 31
Wind_Direction
276 279 282 286 287 288 294 299 303 302 302 298 304 309 319 333 340 343 346 354 19 35 51 63 68 97 111 123 139 160 187 195 202 218 225 228 231 239 245 249 255 258 261 264 261 263 267 269 268 268 270 272 269 271
276 282 284 287 288 289 292 299 301 306 298 293 302 306 321 333 340 345 345 18 29 39 50 60 62 76 92 125 152 177 178 196 208 215 226 238 248 254 258 257 259 263 262 263 266 269 271 271 270 270 270 272 273 273
283 284 288 286 290 293 295 294 307 307 306 295 299 305 322 334 336 343 342 7 42 39 44 67 77 81 95 112 122 148 175 193 213 227 238 247 255 258 261 263 263 263 263 263 269 268 268 269 270 271 272 273 274 275
285 286 285 288 291 287 287 299 303 307 310 287 299 307 321 332 332 341 333 326 14 43 43 53 76 97 105 112 163 202 224 238 246 247 254 259 262 265 265 267 268 268 269 270 270 270 271 271 272 274 275 275 275 275
283 282 283 281 274 279 293 297 305 305 308 288 293 305 321 326 328 338 323 292 311 350 15 67 93 100 98 89 28 326 300 292 277 268 266 268 271 274 274 272 273 276 277 276 275 274 273 274 276 278 279 280 280 279
277 274 265 262 274 282 291 303 303 306 297 281 282 297 315 318 319 334 322 283 295 324 343 113 118 120 82 337 303 309 314 308 293 291 289 291 295 295 292 290 288 284 281 279 279 279 279 279 281 285 284 283 282 281
260 250 256 269 278 287 296 303 301 305 279 271 276 293 304 315 314 327 328 270 268 284 286 225 209 221 303 334 335 333 328 319 319 317 315 313 310 306 301 295 293 293 291 293 294 292 292 290 290 291 291 290 291 290
248 255 262 273 285 288 303 301 297 296 258 267 276 283 303 306 310 319 327 262 252 259 253 238 242 265 300 324 330 330 328 329 330 325 321 319 318 313 306 304 304 305 304 302 302 302 303 302 304 304 302 300 298 295
254 258 269 273 286 295 302 298 300 269 248 261 270 283 301 299 308 315 326 274 248 244 239 243 252 277 301 320 326 330 328 330 333 332 328 326 323 318 317 316 314 312 307 307 308 313 316 312 309 310 312 313 308 298
255 263 272 278 287 299 298 295 296 248 245 252 263 285 293 293 304 311 322 290 235 235 234 237 251 270 291 310 322 327 326 332 339 337 337 335 329 330 327 326 324 327 327 330 327 326 325 326 326 327 326 320 305 305
259 265 273 283 290 294 293 295 272 230 239 250 270 281 286 288 301 308 314 289 227 235 238 238 247 259 283 303 317 325 330 336 335 337 338 339 337 336 338 341 340 343 342 344 344 344 344 343 345 337 335 334 318 314
261 268 275 282 288 283 289 289 230 230 238 254 266 280 282 287 299 304 309 282 217 225 228 234 241 255 283 299 311 320 328 333 334 336 334 343 345 344 349 348 352 357 1 4 7 11 9 4 359 359 360 358 343 338
262 268 275 278 275 279 288 267 224 239 254 254 269 275 276 286 298 302 310 258 214 220 226 228 239 256 277 299 308 319 328 332 335 340 343 354 354 354 353 0 3 4 7 20 25 25 25 23 22 17 20 23 22 15
262 266 264 269 274 279 282 248 234 248 247 256 269 273 279 289 297 302 306 235 205 220 217 226 243 252 274 299 307 321 329 333 343 350 4 4 3 4 4 1 359 5 19 31 33 29 30 31 33 31 29 33 36 36
253 256 264 265 273 278 270 240 236 240 250 257 271 274 281 292 299 303 293 204 197 206 217 230 243 252 274 292 299 314 333 334 340 337 342 360 2 7 10 5 25 34 29 23 21 24 28 31 34 35 37 36 37 39
257 259 261 266 267 271 247 226 233 240 249 262 270 278 287 295 297 305 235 191 200 210 221 230 235 247 271 284 290 311 332 331 337 332 328 338 358 8 1 9 17 10 11 20 23 24 27 29 33 36 37 39 39 38
256 258 261 262 259 244 226 223 229 240 265 263 274 282 293 297 304 280 191 193 202 211 218 225 230 249 271 284 292 309 322 325 328 333 329 327 354 3 2 353 351 348 2 8 11 13 17 19 24 28 27 29 32 37
255 257 252 245 237 219 214 224 241 262 258 268 278 290 296 302 293 210 181 193 197 207 216 219 234 256 275 287 294 309 315 317 321 323 330 342 354 356 345 343 341 349 354 1 4 12 15 15 14 20 23 23 22 24
244 240 237 226 211 205 214 232 251 248 259 271 285 293 301 302 233 181 180 193 200 209 213 219 235 257 278 289 298 308 309 316 317 320 322 323 325 335 328 333 329 334 350 359 6 12 10 9 9 13 16 17 15 15
227 222 208 194 192 204 215 242 239 252 266 280 290 297 307 244 184 179 188 193 201 207 216 229 241 266 276 291 299 303 301 303 298 299 304 308 293 304 316 322 325 317 322 335 344 351 357 356 1 4 10 11 10 10
190 181 179 185 199 214 236 239 241 256 273 286 295 305 286 200 182 183 189 195 201 207 218 232 252 272 285 294 298 300 298 297 294 289 290 290 274 276 291 299 312 310 309 308 323 334 341 345 351 359 3 5 6 7
167 173 185 196 210 225 227 232 249 268 280 291 299 302 205 184 182 187 190 197 209 218 231 245 267 288 299 301 301 302 301 297 290 284 278 272 254 258 293 307 303 308 303 306 320 325 330 337 343 354 355 357 359 359
178 186 196 208 216 222 226 240 259 271 284 292 302 253 187 183 184 189 194 206 211 221 235 257 284 297 299 306 311 308 303 299 284 279 265 246 246 255 288 294 305 307 304 318 325 324 324 327 340 347 349 352 351 349
189 198 208 216 216 221 233 254 265 275 288 298 293 198 186 185 183 190 203 207 214 226 250 274 292 300 304 312 310 312 312 303 282 265 248 235 236 252 281 296 303 303 315 325 323 321 317 320 336 337 339 343 344 343
203 210 216 215 218 231 247 261 270 280 293 302 217 186 185 183 182 195 200 208 220 239 260 281 297 305 313 314 316 315 317 349 330 258 250 242 234 247 283 279 292 323 325 330 331 329 327 329 334 332 334 341 344 344
209 207 212 220 233 243 254 264 270 282 297 267 185 183 184 185 188 191 198 211 229 252 277 295 303 308 311 311 315 310 306 318 331 290 269 255 251 260 245 273 296 308 323 334 328 328 333 335 332 333 341 348 343 343
219 222 229 237 241 246 254 263 272 289 297 192 181 183 185 186 188 196 206 222 244 267 288 296 306 309 306 311 311 313 296 308 300 293 301 289 250 238 255 277 298 315 326 325 323 332 333 334 335 341 349 357 12 10
232 235 239 244 247 251 256 263 274 284 230 182 178 183 185 187 193 200 218 242 261 277 293 305 306 305 307 306 296 284 284 299 301 293 301 287 249 242 275 286 306 321 321 328 337 338 335 341 344 352 9 6 7 6
245 246 249 251 252 256 260 266 271 252 186 174 180 184 186 189 195 212 239 254 276 298 308 306 308 309 310 302 297 270 264 267 277 286 290 274 244 244 272 300 314 316 332 336 335 341 352 3 16 9 7 1 358 357
253 255 255 257 259 262 261 246 206 178 174 180 183 184 185 192 205 213 227 255 288 304 303 308 308 310 313 317 323 298 273 226 121 157 116 52 313 314 329 332 315 335 344 336 340 355 15 8 7 4 358 351 355 2
260 259 256 251 243 228 203 183 173 174 176 178 177 183 188 191 197 204 229 285 300 304 307 317 328 336 346 351 72 111 121 119 117 115 87 62 63 48 301 292 334 341 343 343 7 18 4 3 358 354 352 2 5 1
238 230 220 209 194 182 171 167 169 171 172 175 181 181 185 189 193 210 259 277 271 267 320 348 347 19 35 45 66 77 87 101 108 103 96 88 4 335 344 348 333 341 9 45 21 15 6 359 358 359 355 355 355 355
197 189 180 174 167 161 161 165 169 170 172 174 176 182 183 174 178 221 241 223 213 251 45 30 42 63 39 36 54 65 74 85 109 136 277 302 334 339 334 336 31 77 40 24 21 15 8 6 7 8 9 5 358 353
Height
10779 10779 10777 10775 10773 10772 10770 10765 10759 10754 10751 10746 10742 10736 10730 10722 10712 10701 10689 10678 10668 10657 10645 10637 10633 10633 10637 10644 10653 10661 10668 10677 10687 10695 10702 10709 10713 10715 10716 10718 10721 10721 10719 10717 10715 10710 10708 10704 10701 10695 10688 10683 10680 10679
10765 10764 10762 10759 10758 10759 10757 10751 10747 10743 10741 10738 10733 10729 10723 10717 10708 10699 10690 10681 10675 10668 10659 10653 10650 10649 10652 10657 10664 10671 10676 10682 10688 10694 10699 10702 10704 10706 10707 10709 10708 10707 10705 10702 10699 10695 10691 10684 10678 10672 10666 10660 10657 10652
10749 10748 10746 10744 10746 10746 10743 10740 10737 10735 10732 10729 10726 10723 10718 10713 10705 10697 10691 10686 10680 10676 10672 10667 10665 10665 10666 10669 10674 10678 10680 10684 10688 10692 10695 10697 10697 10697 10696 10695 10694 10692 10690 10687 10682 10674 10668 10661 10654 10649 10644 10637 10632 10628
10734 10733 10733 10733 10734 10733 10732 10731 10729 10726 10723 10720 10719 10717 10712 10707 10702 10695 10689 10687 10683 10679 10676 10674 10674 10675 10675 10677 10680 10681 10683 10685 10686 10687 10688 10688 10687 10686 10683 10681 10678 10675 10672 10666 10660 10654 10648 10638 10632 10627 10620 10614 10609 10605
10721 10721 10722 10722 10723 10723 10723 10722 10720 10716 10714 10712 10712 10711 10707 10702 10698 10693 10688 10686 10683 10682 10678 10677 10676 10676 10677 10679 10680 10681 10682 10682 10681 10681 10681 10680 10677 10674 10671 10667 10662 10657 10652 10645 10639 10633 10627 10621 10614 10608 10600 10593 10589 10583
10709 10710 10712 10713 10714 10714 10714 10712 10710 10708 10705 10705 10705 10705 10701 10697 10693 10690 10685 10684 10682 10681 10680 10679 10679 10679 10680 10681 10681 10680 10679 10678 10677 10675 10672 10670 10666 10661 10655 10649 10644 10639 10634 10629 10623 10618 10612 10605 10598 10591 10581 10573 10567 10561
10699 10701 10703 10704 10705 10705 10705 10703 10700 10699 10698 10697 10698 10698 10695 10692 10688 10684 10681 10679 10679 10679 10679 10678 10678 10678 10678 10678 10677 10676 10674 10672 10669 10665 10662 10659 10654 10648 10641 10636 10632 10627 10621 10615 10609 10602 10595 10588 10581 10572 10563 10554 10547 10540
10690 10692 10694 10695 10696 10696 10694 10693 10691 10690 10690 10690 10691 10690 10689 10687 10683 10679 10676 10673 10675 10676 10676 10677 10677 10677 10676 10675 10674 10671 10668 10666 10662 10658 10653 10648 10642 10637 10633 10629 10623 10617 10610 10603 10596 10588 10581 10573 10564 10556 10547 10537 10528 10520
10681 10683 10685 10686 10687 10686 10684 10683 10681 10680 10682 10683 10684 10684 10682 10680 10678 10673 10670 10668 10670 10672 10672 10673 10673 10673 10672 10671 10669 10667 10664 10661 10658 10652 10646 10640 10634 10629 10626 10621 10615 10609 10603 10595 10587 10579 10571 10562 10554 10544 10532 10520 10509 10503
10671 10674 10675 10675 10676 10675 10674 10672 10671 10672 10674 10676 10677 10677 10675 10673 10671 10669 10666 10663 10666 10668 10669 10670 10669 10669 10669 10668 10666 10664 10661 10658 10652 10646 10640 10633 10627 10624 10619 10613 10607 10599 10592 10585 10578 10569 10561 10552 10543 10531 10519 10508 10498 10494
10661 10663 10664 10664 10665 10664 10665 10663 10662 10664 10667 10669 10670 10669 10668 10666 10664 10662 10660 10657 10660 10663 10665 10666 10666 10666 10666 10665 10663 10661 10657 10653 10647 10641 10634 10629 10624 10619 10613 10606 10600 10593 10585 10578 10570 10561 10552 10543 10534 10524 10511 10500 10491 10487
10650 10652 10653 10653 10655 10654 10655 10654 10655 10658 10660 10661 10662 10662 10660 10659 10657 10655 10653 10650 10653 10657 10660 10661 10662 10662 10662 10661 10659 10656 10653 10648 10642 10637 10631 10625 10621 10615 10609 10602 10596 10590 10584 10578 10570 10562 10553 10544 10535 10521 10507 10495 10487 10483
10639 10642 10642 10643 10644 10645 10645 10645 10648 10650 10652 10654 10654 10654 10652 10651 10649 10647 10645 10642 10646 10651 10654 10656 10657 10658 10657 10656 10654 10652 10649 10644 10639 10634 10628 10624 10618 10612 10606 10601 10596 10591 10586 10579 10571 10563 10555 10546 10535 10524 10511 10499 10490 10485
10628 10630 10631 10633 10635 10636 10635 10637 10640 10642 10644 10646 10646 10645 10644 10643 10641 10639 10636 10634 10640 10645 10648 10651 10653 10653 10652 10651 10650 10648 10645 10641 10636 10632 10627 10622 10616 10610 10605 10601 10597 10592 10586 10580 10573 10567 10560 10551 10540 10529 10518 10507 10498 10491
10615 10618 10621 10623 10625 10626 10627 10629 10632 10635 10637 10637 10638 10637 10635 10633 10632 10630 10626 10627 10634 10639 10644 10647 10649 10649 10648 10647 10646 10645 10642 10637 10633 10629 10624 10620 10615 10609 10605 10602 10597 10593 10589 10582 10576 10570 10562 10553 10544 10536 10527 10518 10509 10501
10603 10606 10609 10613 10614 10616 10618 10621 10625 10628 10629 10629 10629 10628 10626 10624 10621 10619 10617 10623 10629 10635 10640 10642 10644 10645 10644 10643 10642 10640 10638 10633 10629 10625 10620 10617 10613 10609 10606 10603 10599 10596 10591 10585 10579 10574 10567 10560 10550 10542 10535 10528 10522 10515
10590 10594 10598 10601 10604 10607 10610 10615 10618 10621 10622 10621 10620 10620 10617 10615 10612 10608 10611 10619 10625 10632 10636 10638 10639 10640 10639 10638 10637 10635 10633 10629 10624 10621 10618 10616 10612 10608 10606 10604 10601 10597 10592 10587 10581 10576 10570 10563 10556 10548 10542 10537 10531 10525
10577 10581 10586 10591 10595 10599 10604 10609 10612 10613 10614 10613 10613 10611 10609 10606 10600 10601 10609 10617 10623 10627 10630 10633 10634 10635 10635 10634 10632 10630 10626 10624 10621 10616 10615 10614 10610 10606 10605 10602 10600 10596 10590 10586 10582 10577 10571 10567 10562 10556 10549 10543 10538 10532
10563 10568 10575 10581 10588 10594 10599 10603 10605 10606 10606 10606 10605 10604 10600 10595 10594 10600 10608 10613 10619 10623 10626 10628 10630 10630 10629 10629 10627 10624 10620 10615 10609 10607 10608 10607 10606 10604 10602 10600 10598 10595 10591 10587 10583 10578 10574 10570 10565 10558 10551 10546 10541 10537
10550 10558 10566 10575 10582 10588 10593 10597 10598 10599 10600 10599 10597 10595 10592 10588 10592 10599 10606 10612 10616 10620 10623 10625 10625 10626 10625 10624 10622 10619 10616 10612 10609 10603 10603 10604 10603 10600 10598 10596 10595 10593 10591 10587 10584 10580 10575 10572 10567 10561 10555 10548 10543 10539
10543 10553 10563 10571 10578 10584 10588 10590 10591 10593 10593 10591 10590 10587 10584 10585 10592 10599 10605 10610 10615 10618 10620 10621 10621 10620 10619 10618 10616 10613 10609 10607 10604 10600 10597 10595 10595 10596 10593 10593 10592 10590 10588 10585 10582 10578 10575 10571 10566 10560 10554 10549 10545 10540
10545 10553 10561 10567 10574 10578 10580 10583 10585 10586 10585 10584 10583 10580 10580 10586 10592 10598 10604 10609 10612 10614 10616 10617 10616 10615 10613 10612 10609 10606 10601 10596 10592 10590 10589 10588 10588 10590 10591 10589 10589 10587 10585 10582 10578 10575 10573 10570 10565 10559 10555 10550 10545 10541
10546 10553 10559 10564 10568 10571 10575 10577 10578 10578 10578 10577 10575 10574 10578 10585 10591 10597 10602 10605 10608 10610 10612 10612 10612 10610 10608 10606 10601 10594 10588 10583 10578 10577 10579 10580 10581 10584 10585 10586 10585 10583 10581 10578 10575 10572 10570 10568 10563 10558 10554 10548 10545 10541
10545 10550 10555 10559 10563 10567 10569 10571 10571 10572 10572 10570 10568 10570 10577 10584 10591 10596 10599 10602 10605 10607 10608 10607 10607 10605 10602 10599 10592 10585 10579 10572 10568 10568 10570 10574 10577 10580 10582 10581 10581 10579 10576 10574 10572 10569 10567 10564 10560 10557 10553 10550 10545 10542
10543 10547 10551 10554 10558 10561 10563 10564 10565 10565 10565 10563 10563 10569 10577 10584 10589 10593 10597 10600 10601 10602 10602 10602 10600 10596 10594 10590 10586 10579 10574 10570 10567 10568 10570 10573 10575 10577 10579 10579 10578 10575 10573 10570 10568 10565 10563 10560 10556 10555 10551 10546 10541 10537
10539 10543 10546 10549 10552 10555 10556 10558 10558 10559 10559 10557 10561 10569 10577 10582 10586 10591 10594 10595 10597 10598 10598 10596 10593 10590 10586 10582 10580 10576 10572 10571 10570 10571 10572 10573 10575 10575 10575 10575 10575 10573 10570 10567 10566 10562 10560 10557 10555 10552 10547 10543 10539 10535
10533 10537 10540 10543 10546 10548 10549 10551 10552 10553 10553 10554 10561 10569 10575 10580 10585 10588 10590 10593 10594 10594 10593 10591 10589 10585 10580 10576 10572 10572 10570 10569 10568 10568 10568 10568 10569 10570 10571 10571 10572 10571 10568 10567 10565 10562 10559 10556 10554 10551 10547 10543 10539 10534
10525 10528 10531 10534 10537 10539 10541 10544 10547 10548 10549 10553 10561 10568 10574 10579 10583 10587 10588 10590 10590 10590 10587 10585 10582 10579 10576 10573 10569 10567 10566 10567 10566 10565 10565 10565 10567 10567 10567 10570 10570 10568 10567 10565 10563 10561 10557 10555 10553 10550 10546 10543 10539 10535
10516 10518 10521 10523 10526 10529 10533 10536 10540 10541 10545 10553 10560 10566 10573 10578 10581 10584 10587 10587 10586 10584 10582 10579 10576 10574 10571 10568 10565 10563 10563 10564 10565 10565 10565 10565 10566 10566 10567 10566 10566 10565 10564 10563 10561 10559 10556 10554 10552 10549 10547 10542 10537 10531
10503 10506 10508 10511 10514 10518 10522 10526 10529 10535 10543 10550 10558 10565 10571 10575 10579 10581 10582 10582 10581 10580 10578 10575 10573 10571 10568 10565 10564 10563 10562 10562 10563 10563 10563 10563 10563 10563 10564 10564 10564 10563 10562 10560 10558 10556 10555 10553 10551 10549 10546 10541 10535 10530
10488 10490 10492 10496 10500 10503 10508 10514 10523 10533 10543 10552 10560 10565 10569 10573 10576 10578 10580 10579 10578 10577 10574 10572 10570 10569 10567 10565 10564 10563 10562 10562 10562 10563 10563 10564 10564 10564 10565 10565 10564 10563 10562 10561 10559 10558 10557 10554 10551 10548 10543 10538 10533 10529
10474 10478 10481 10486 10491 10498 10506 10515 10526 10537 10546 10553 10559 10565 10569 10572 10573 10575 10576 10575 10575 10574 10572 10572 10570 10569 10567 10566 10564 10564 10563 10563 10563 10564 10565 10565 10565 10565 10563 10562 10562 10562 10561 10560 10559 10557 10554 10551 10548 10544 10539 10535 10531 10527
10469 10472 10478 10484 10491 10499 10509 10520 10530 10539 10548 10554 10559 10563 10567 10569 10571 10572 10573 10573 10573 10573 10571 10571 10570 10569 10568 10567 10566 10565 10565 10565 10565 10566 10566 10565 10564 10563 10562 10561 10560 10560 10560 10559 10557 10555 10552 10548 10545 10541 10537 10534 10529 10524